This demonstration page uses our WeatherBlox Daily Observations layout. Learn more.

Left ArrowRight Arrow

36.17497, -115.13722

Hourly Observations for February 7, 2019

Temp ( °F °C ) Dew Point ( °F °C ) Humidity (%) Winds ( mph kmh ) Pressure ( in mb ) Visibility ( mi km ) Precip ( " mm )
12:53 am 00:53 Clear 38 3.3 12 -11.1 34 34 NNW 12 19 30.27 1025 10 16 0.00 0.00
1:53 am 01:53 Clear 37 2.8 13 -10.6 37 37 NNE 12 19 30.29 1026 10 16 0.00 0.00
2:53 am 02:53 Clear 35 1.7 14 -10 42 42 N 6 9 30.30 1026 10 16 0.00 0.00
3:53 am 03:53 Clear 34 1.1 14 -10 44 44 NNE 7 11 30.31 1026 10 16 0.00 0.00
4:53 am 04:53 Clear 34 1.1 14 -10 44 44 NNW 9 15 30.32 1027 10 16 0.00 0.00
5:53 am 05:53 Clear 34 1.1 14 -10 44 44 Calm 30.35 1028 10 16 0.00 0.00
6:53 am 06:53 Sunny 33 0.6 14 -10 45 45 WNW 5 7 30.38 1029 10 16 0.00 0.00
7:53 am 07:53 Sunny 35 1.7 17 -8.3 48 48 E 3 6 30.40 1030 10 16 0.00 0.00
8:53 am 08:53 Sunny 39 3.9 15 -9.4 38 38 Calm 30.42 1030 10 16 0.00 0.00
9:53 am 09:53 Sunny 41 5 14 -10 33 33 VRB 3 6 30.43 1031 10 16 0.00 0.00
10:53 am 10:53 Sunny 43 6.1 14 -10 31 31 SE 5 7 30.43 1030 10 16 0.00 0.00
11:53 am 11:53 Sunny 43 6.1 13 -10.6 29 29 Calm 30.41 1030 10 16 0.00 0.00
12:53 pm 12:53 Sunny 45 7.2 13 -10.6 27 27 E 3 6 30.38 1029 10 16 0.00 0.00
1:53 pm 13:53 Sunny 46 7.8 12 -11.1 25 25 VRB 3 6 30.36 1028 10 16 0.00 0.00
2:53 pm 14:53 Sunny 46 7.8 11 -11.7 24 24 SE 6 9 30.35 1028 10 16 0.00 0.00
3:53 pm 15:53 Sunny 47 8.3 11 -11.7 23 23 ENE 6 9 30.34 1027 10 16 0.00 0.00
4:53 pm 16:53 Sunny 44 6.7 10 -12.2 25 25 E 7 11 30.34 1027 10 16 0.00 0.00
5:53 pm 17:53 Clear 43 6.1 13 -10.6 29 29 E 8 13 30.35 1028 10 16 0.00 0.00
6:53 pm 18:53 Clear 41 5 16 -8.9 36 36 E 8 13 30.36 1028 10 16 0.00 0.00
7:53 pm 19:53 Clear 41 5 15 -9.4 35 35 Calm 30.36 1028 10 16 0.00 0.00
8:53 pm 20:53 Clear 40 4.4 16 -8.9 38 38 WSW 3 6 30.35 1028 10 16 0.00 0.00
9:53 pm 21:53 Clear 38 3.3 17 -8.3 43 43 WSW 3 6 30.35 1028 10 16 0.00 0.00
10:53 pm 22:53 Clear 38 3.3 19 -7.2 46 46 Calm 30.33 1027 10 16 0.00 0.00
11:53 pm 23:53 Clear 36 2.2 21 -6.1 55 55 NW 6 9 30.32 1027 10 16 0.00 0.00

Powered by AerisWeather